Weather History for Liberal, KS

Change the Weather History Date:

Wednesday, February 13, 2013

  Actual Average Record
Temperature  
Mean Temperature 34 °F -  
Max Temperature 50 °F 54 °F 82 °F (1954)
Min Temperature 19 °F 25 °F -6 °F (1948)
Degree Days  
Heating Degree Days 30    
Moisture  
Dew Point 19 °F    
Average Humidity 60    
Maximum Humidity 80    
Minimum Humidity 32    
Precipitation  
Precipitation 0.00 in - - ()
Sea Level Pressure  
Sea Level Pressure 29.99 in    
Wind  
Wind Speed 10 mph (West)    
Max Wind Speed 14 mph    
Max Gust Speed 16 mph    
Visibility 10 miles    
Events      
Averages and records for this station are not official NWS values.
T = Trace of Precipitation, MM = Missing Value Source: NWS Daily Summary

Daily Weather History Graph

Daily Weather History Graph

Search for Another Location

Airport:

Trip Planner

Search our weather history database for the weather conditions in past years. The results will help you decide how hot, cold, wet, or windy it might be!

Date:

Astronomy

Feb. 13, 2013 Rise Set
Actual Time 7:34 AM CST 6:22 PM CST
Civil Twilight 7:07 AM CST 6:48 PM CST
Nautical Twilight 6:37 AM CST 7:19 PM CST
Astronomical Twilight 6:07 AM CST 7:49 PM CST
Moon 9:11 AM CST (2/13) 10:19 PM CST (2/13)
Length of Visible Light 11h 41m
Length of Day
10h 47m
Waxing Crescent, 14% of the Moon is Illuminated
Feb 13
Waxing Crescent
Feb 17
First Quarter
Feb 25
Full
Mar 4
Last Quarter
Mar 11
New

Hourly Weather History & Observations

Time (CST) Temp. Windchill Dew Point Humidity Pressure Visibility Wind Dir Wind Speed Gust Speed Precip Events Conditions
12:15 AM 26.6 °F 16.2 °F 21.2 °F 80% 30.02 in 10.0 mi West 11.5 mph - N/A   Clear
12:35 AM 26.6 °F 16.8 °F 19.4 °F 74% 30.02 in 10.0 mi West 10.4 mph - N/A   Clear
12:55 AM 26.6 °F 15.7 °F 17.6 °F 69% 30.02 in 10.0 mi WNW 12.7 mph - N/A   Clear
1:15 AM 24.8 °F 14.0 °F 15.8 °F 69% 30.03 in 10.0 mi NW 11.5 mph - N/A   Clear
1:35 AM 23.0 °F 12.4 °F 15.8 °F 74% 30.02 in 10.0 mi NW 10.4 mph - N/A   Clear
1:55 AM 23.0 °F 13.1 °F 14.0 °F 68% 30.03 in 10.0 mi NW 9.2 mph - N/A   Clear
2:15 AM 21.2 °F 10.9 °F 14.0 °F 74% 30.02 in 10.0 mi WNW 9.2 mph - N/A   Clear
2:35 AM 21.2 °F 11.7 °F 12.2 °F 68% 30.02 in 10.0 mi WNW 8.1 mph - N/A   Clear
2:55 AM 21.2 °F 11.7 °F 12.2 °F 68% 30.02 in 10.0 mi WNW 8.1 mph - N/A   Clear
3:15 AM 21.2 °F 10.1 °F 12.2 °F 68% 30.01 in 10.0 mi WNW 10.4 mph - N/A   Clear
3:35 AM 21.2 °F 10.1 °F 12.2 °F 68% 30.01 in 10.0 mi WNW 10.4 mph - N/A   Clear
3:55 AM 21.2 °F 10.1 °F 12.2 °F 68% 30.01 in 10.0 mi WNW 10.4 mph - N/A   Clear
4:15 AM 19.4 °F 7.9 °F 12.2 °F 74% 30.01 in 10.0 mi WNW 10.4 mph - N/A   Clear
4:35 AM 21.2 °F 10.1 °F 12.2 °F 68% 30.01 in 10.0 mi NW 10.4 mph - N/A   Clear
4:55 AM 21.2 °F 10.9 °F 12.2 °F 68% 30.01 in 10.0 mi NW 9.2 mph - N/A   Clear
5:15 AM 21.2 °F 10.9 °F 12.2 °F 68% 30.02 in 10.0 mi NW 9.2 mph - N/A   Clear
5:35 AM 21.2 °F 9.5 °F 12.2 °F 68% 30.02 in 10.0 mi NW 11.5 mph - N/A   Clear
5:55 AM 21.2 °F 10.1 °F 12.2 °F 68% 30.03 in 10.0 mi NNW 10.4 mph - N/A   Clear
6:15 AM 21.2 °F 9.5 °F 12.2 °F 68% 30.02 in 10.0 mi NW 11.5 mph - N/A   Clear
6:35 AM 21.2 °F 11.7 °F 12.2 °F 68% 30.01 in 10.0 mi NW 8.1 mph - N/A   Clear
6:55 AM 19.4 °F 7.9 °F 10.4 °F 68% 30.01 in 10.0 mi WNW 10.4 mph - N/A   Clear
7:15 AM 19.4 °F 8.6 °F 10.4 °F 68% 30.01 in 10.0 mi WNW 9.2 mph - N/A   Clear
7:35 AM 19.4 °F 7.9 °F 10.4 °F 68% 30.01 in 10.0 mi WNW 10.4 mph - N/A   Clear
7:55 AM 19.4 °F 9.5 °F 12.2 °F 74% 30.02 in 10.0 mi NW 8.1 mph - N/A   Clear
8:15 AM 21.2 °F 10.9 °F 12.2 °F 68% 30.03 in 10.0 mi NW 9.2 mph - N/A   Clear
8:35 AM 24.8 °F 15.3 °F 15.8 °F 69% 30.04 in 10.0 mi NW 9.2 mph - N/A   Clear
8:55 AM 26.6 °F 17.5 °F 15.8 °F 64% 30.04 in 10.0 mi WNW 9.2 mph - N/A   Clear
9:15 AM 28.4 °F 19.7 °F 17.6 °F 64% 30.04 in 10.0 mi NW 9.2 mph - N/A   Clear
9:35 AM 32.0 °F 24.2 °F 19.4 °F 60% 30.03 in 10.0 mi NNW 9.2 mph - N/A   Clear
9:55 AM 33.8 °F 25.8 °F 21.2 °F 60% 30.04 in 10.0 mi NW 10.4 mph - N/A   Clear
10:15 AM 35.6 °F 31.7 °F 23.0 °F 60% 30.04 in 10.0 mi NNW 4.6 mph - N/A   Clear
10:35 AM 37.4 °F 32.8 °F 23.0 °F 56% 30.04 in 10.0 mi NW 5.8 mph - N/A   Clear
10:55 AM 39.2 °F 37.0 °F 24.8 °F 56% 30.04 in 10.0 mi West 3.5 mph - N/A   Clear
11:15 AM 41.0 °F 39.0 °F 26.6 °F 57% 30.03 in 10.0 mi WSW 3.5 mph - N/A   Clear
11:35 AM 42.8 °F 40.1 °F 26.6 °F 53% 30.03 in 10.0 mi WSW 4.6 mph - N/A   Clear
11:55 AM 44.6 °F 40.7 °F 24.8 °F 46% 30.02 in 10.0 mi WSW 6.9 mph - N/A   Clear
12:15 PM 46.4 °F 42.4 °F 26.6 °F 46% 30.01 in 10.0 mi SSW 8.1 mph - N/A   Clear
12:35 PM 46.4 °F 42.4 °F 24.8 °F 43% 30.00 in 10.0 mi SW 8.1 mph - N/A   Clear
12:55 PM 48.2 °F - 24.8 °F 40% 29.99 in 10.0 mi WSW 10.4 mph - N/A   Clear
1:15 PM 48.2 °F - 24.8 °F 40% 29.99 in 10.0 mi SW 13.8 mph - N/A   Clear
1:35 PM 48.2 °F - 24.8 °F 40% 29.98 in 10.0 mi SSW 8.1 mph - N/A   Clear
1:55 PM 48.2 °F - 23.0 °F 37% 29.97 in 10.0 mi SW 11.5 mph - N/A   Clear
2:15 PM 50.0 °F - 21.2 °F 32% 29.96 in 10.0 mi WSW 10.4 mph 16.1 mph N/A   Clear
2:35 PM 50.0 °F - 23.0 °F 35% 29.95 in 10.0 mi SW 12.7 mph - N/A   Clear
2:55 PM 50.0 °F - 24.8 °F 37% 29.95 in 10.0 mi SSW 13.8 mph - N/A   Clear
3:15 PM 48.2 °F - 24.8 °F 40% 29.95 in 10.0 mi SSW 12.7 mph - N/A   Clear
3:35 PM 48.2 °F - 23.0 °F 37% 29.94 in 10.0 mi SSW 13.8 mph - N/A   Clear
3:55 PM 48.2 °F - 23.0 °F 37% 29.94 in 10.0 mi SSW 12.7 mph - N/A   Clear
4:15 PM 46.4 °F 41.1 °F 21.2 °F 37% 29.94 in 10.0 mi SSW 11.5 mph - N/A   Clear
4:35 PM 46.4 °F 40.7 °F 21.2 °F 37% 29.94 in 10.0 mi SW 12.7 mph - N/A   Clear
4:55 PM 46.4 °F 40.7 °F 21.2 °F 37% 29.94 in 10.0 mi SSW 12.7 mph - N/A   Clear
5:15 PM 44.6 °F 38.8 °F 23.0 °F 43% 29.94 in 10.0 mi SSW 11.5 mph - N/A   Clear
5:35 PM 44.6 °F 39.2 °F 24.8 °F 46% 29.94 in 10.0 mi SSW 10.4 mph - N/A   Clear
5:55 PM 42.8 °F 37.5 °F 23.0 °F 46% 29.93 in 10.0 mi SSW 9.2 mph - N/A   Clear
6:15 PM 39.2 °F 32.5 °F 23.0 °F 52% 29.94 in 10.0 mi SSW 10.4 mph - N/A   Clear
6:35 PM 37.4 °F 30.8 °F 21.2 °F 52% 29.94 in 10.0 mi SSW 9.2 mph - N/A   Clear
6:55 PM 35.6 °F 29.2 °F 21.2 °F 56% 29.94 in 10.0 mi SW 8.1 mph - N/A   Clear
7:15 PM 33.8 °F 25.8 °F 23.0 °F 65% 29.95 in 10.0 mi SW 10.4 mph - N/A   Clear
7:35 PM 33.8 °F 26.4 °F 21.2 °F 60% 29.95 in 10.0 mi WSW 9.2 mph - N/A   Clear
7:55 PM 32.0 °F 24.8 °F 21.2 °F 64% 29.96 in 10.0 mi WSW 8.1 mph - N/A   Clear
8:15 PM 30.2 °F 21.9 °F 19.4 °F 64% 29.96 in 10.0 mi WSW 9.2 mph - N/A   Clear
8:35 PM 30.2 °F 21.3 °F 21.2 °F 69% 29.97 in 10.0 mi WSW 10.4 mph - N/A   Clear
8:55 PM 30.2 °F 21.3 °F 21.2 °F 69% 29.96 in 10.0 mi WSW 10.4 mph - N/A   Clear
9:15 PM 30.2 °F 21.9 °F 21.2 °F 69% 29.97 in 10.0 mi WSW 9.2 mph - N/A   Clear
9:35 PM 30.2 °F 21.9 °F 23.0 °F 75% 29.97 in 10.0 mi WSW 9.2 mph - N/A   Clear
9:55 PM 28.4 °F 19.1 °F 21.2 °F 74% 29.97 in 10.0 mi WSW 10.4 mph - N/A   Clear
10:15 PM 30.2 °F 22.6 °F 24.8 °F 80% 29.97 in 10.0 mi SW 8.1 mph - N/A   Clear
10:35 PM 30.2 °F 23.4 °F 21.2 °F 69% 29.98 in 10.0 mi WSW 6.9 mph - N/A   Clear
10:55 PM 28.4 °F 22.2 °F 21.2 °F 74% 29.99 in 10.0 mi WSW 5.8 mph - N/A   Clear
11:15 PM 28.4 °F 20.4 °F 19.4 °F 69% 29.99 in 10.0 mi WSW 8.1 mph - N/A   Clear
11:35 PM 28.4 °F 20.4 °F 21.2 °F 74% 29.99 in 10.0 mi WSW 8.1 mph - N/A   Clear
11:55 PM 28.4 °F 19.1 °F 21.2 °F 74% 29.99 in 10.0 mi WSW 10.4 mph - N/A   Clear